Find USA 286

NORAD ID: 43446 Int'l Des: 2018-036 Owner: AFRL Country: US operational
MEOCIRCULAR

リアルタイム位置

3D地球を読み込み中...

USA 286について

説明を読み込み中...

次回通過

Passes for default location (London). Set your location on the main map for personalized predictions.

高度履歴

Loading altitude history...

軌道要素

1 43446U 18036F 26097.86585231 -.00000230 00000-0 00000+0 0 9996
2 43446 6.9441 67.7541 0010506 166.7207 346.3244 1.02123900 26202
Epoch: Apr 7, 2026 • Age: 173 hours

現在のステータス

高度 35294.2 km
速度 3.09 km/s
衛星直下点 -6.83°S, 121.12°E
打ち上げ日 Apr 14, 2018
運用期間 8 years
タイプ military

技術仕様

分類 Payload
質量 100.00 kg
乾燥質量 80.00 kg
総質量 100.00 kg
長さ 0.70 m
直径 0.60 m
スパン 0.60 m
形状 Box
製造者 OATK/HARR
バスタイプ ESPASat
フェーズステータス In Orbit
所有者/国 AFRL/US

Most Searched